Time,TemperatureF,DewpointF,PressureIn,WindDirection,WindDirectionDegrees,WindSpeedMPH,WindSpeedGustMPH,Humidity,HourlyPrecipIn,Conditions,Clouds,dailyrainin,SoftwareType,DateUTC
2013-01-08 00:00:00,37.9,28.4,30.38,North,353,0.0,0.0,68,0.00,,,0.00,meteohub,2013-01-08 05:00:00,
2013-01-08 00:01:00,37.9,28.4,30.38,North,353,0.0,0.0,68,0.00,,,0.00,meteohub,2013-01-08 05:01:00,
2013-01-08 00:03:00,37.9,28.4,30.38,North,353,0.0,0.0,68,0.00,,,0.00,meteohub,2013-01-08 05:03:00,
2013-01-08 00:08:00,37.9,28.4,30.38,North,353,0.0,0.0,68,0.00,,,0.00,meteohub,2013-01-08 05:08:00,
2013-01-08 00:13:00,37.9,28.4,30.38,North,352,0.0,0.0,68,0.00,,,0.00,meteohub,2013-01-08 05:13:00,
2013-01-08 00:18:00,37.9,28.8,30.38,North,353,0.0,0.0,69,0.00,,,0.00,meteohub,2013-01-08 05:18:00,
2013-01-08 00:23:00,37.8,28.6,30.37,North,352,0.0,0.0,69,0.00,,,0.00,meteohub,2013-01-08 05:23:00,
2013-01-08 00:28:00,37.8,28.6,30.38,North,352,0.0,1.0,69,0.00,,,0.00,meteohub,2013-01-08 05:28:00,
2013-01-08 00:33:00,37.0,28.6,30.38,North,352,0.0,1.0,71,0.00,,,0.00,meteohub,2013-01-08 05:33:00,
2013-01-08 00:38:00,36.9,28.8,30.37,North,352,0.0,1.0,72,0.00,,,0.00,meteohub,2013-01-08 05:38:00,
2013-01-08 00:43:00,37.4,28.9,30.37,North,353,0.0,1.0,71,0.00,,,0.00,meteohub,2013-01-08 05:43:00,
2013-01-08 00:48:00,37.6,28.8,30.37,North,353,0.0,1.0,70,0.00,,,0.00,meteohub,2013-01-08 05:48:00,
2013-01-08 00:53:00,37.4,28.6,30.37,North,352,0.0,1.0,70,0.00,,,0.00,meteohub,2013-01-08 05:53:00,
2013-01-08 00:58:00,37.6,28.8,30.37,North,349,0.0,1.0,70,0.00,,,0.00,meteohub,2013-01-08 05:58:00,
2013-01-08 01:03:00,37.4,28.9,30.37,North,349,0.0,1.0,71,0.00,,,0.00,meteohub,2013-01-08 06:03:00,
2013-01-08 01:08:00,37.2,28.8,30.37,North,349,0.0,1.0,71,0.00,,,0.00,meteohub,2013-01-08 06:08:00,
2013-01-08 01:13:00,37.0,28.6,30.37,North,353,0.0,1.0,71,0.00,,,0.00,meteohub,2013-01-08 06:13:00,
2013-01-08 01:18:00,36.9,28.8,30.37,North,352,0.0,1.0,72,0.00,,,0.00,meteohub,2013-01-08 06:18:00,
2013-01-08 01:23:00,37.0,28.9,30.37,North,352,0.0,1.0,72,0.00,,,0.00,meteohub,2013-01-08 06:23:00,
2013-01-08 01:28:00,37.0,28.9,30.37,North,353,0.0,1.0,72,0.00,,,0.00,meteohub,2013-01-08 06:28:00,
2013-01-08 01:33:00,37.0,28.9,30.37,North,352,0.0,1.0,72,0.00,,,0.00,meteohub,2013-01-08 06:33:00,
2013-01-08 01:38:00,37.0,29.1,30.37,North,353,0.0,1.0,73,0.00,,,0.00,meteohub,2013-01-08 06:38:00,
2013-01-08 01:43:00,36.9,28.9,30.37,North,353,0.0,1.0,73,0.00,,,0.00,meteohub,2013-01-08 06:43:00,
2013-01-08 01:48:00,37.0,29.1,30.37,North,353,0.0,1.0,73,0.00,,,0.00,meteohub,2013-01-08 06:48:00,
2013-01-08 01:53:00,37.4,29.1,30.37,North,352,0.0,1.0,72,0.00,,,0.00,meteohub,2013-01-08 06:53:00,
2013-01-08 01:58:00,37.6,29.3,30.37,North,353,0.0,1.0,72,0.00,,,0.00,meteohub,2013-01-08 06:58:00,
2013-01-08 02:03:00,37.8,29.5,30.37,North,353,0.0,1.0,72,0.00,,,0.00,meteohub,2013-01-08 07:03:00,
2013-01-08 02:08:00,37.8,29.5,30.37,North,353,0.0,0.0,72,0.00,,,0.00,meteohub,2013-01-08 07:08:00,
2013-01-08 02:14:00,37.8,29.5,30.36,North,353,0.0,0.0,72,0.00,,,0.00,meteohub,2013-01-08 07:14:00,
2013-01-08 02:19:00,37.6,29.3,30.36,North,353,0.0,0.0,72,0.00,,,0.00,meteohub,2013-01-08 07:19:00,
2013-01-08 02:24:00,37.6,29.3,30.36,North,352,0.0,0.0,72,0.00,,,0.00,meteohub,2013-01-08 07:24:00,
2013-01-08 02:29:00,37.4,29.5,30.36,North,353,0.0,0.0,73,0.00,,,0.00,meteohub,2013-01-08 07:29:00,
2013-01-08 02:34:00,37.2,29.3,30.36,North,352,0.0,0.0,73,0.00,,,0.00,meteohub,2013-01-08 07:34:00,
2013-01-08 02:39:00,37.0,29.1,30.36,North,353,0.0,0.0,73,0.00,,,0.00,meteohub,2013-01-08 07:39:00,
2013-01-08 02:44:00,36.7,29.1,30.36,NNW,330,0.0,1.0,74,0.00,,,0.00,meteohub,2013-01-08 07:44:00,
2013-01-08 02:49:00,36.7,29.1,30.36,NW,325,1.0,1.0,74,0.00,,,0.00,meteohub,2013-01-08 07:49:00,
2013-01-08 02:54:00,36.7,29.1,30.36,NW,324,0.0,1.0,74,0.00,,,0.00,meteohub,2013-01-08 07:54:00,
2013-01-08 02:59:00,36.9,29.7,30.36,NW,325,0.0,2.0,75,0.00,,,0.00,meteohub,2013-01-08 07:59:00,
2013-01-08 03:04:00,36.9,29.3,30.36,NW,325,0.0,2.0,74,0.00,,,0.00,meteohub,2013-01-08 08:04:00,
2013-01-08 03:09:00,36.7,29.5,30.36,NW,325,0.0,2.0,75,0.00,,,0.00,meteohub,2013-01-08 08:09:00,
2013-01-08 03:14:00,36.3,29.1,30.36,NW,324,0.0,2.0,75,0.00,,,0.00,meteohub,2013-01-08 08:14:00,
2013-01-08 03:19:00,36.0,29.5,30.36,NW,324,0.0,1.0,77,0.00,,,0.00,meteohub,2013-01-08 08:19:00,
2013-01-08 03:24:00,35.8,29.3,30.36,NW,325,0.0,0.0,77,0.00,,,0.00,meteohub,2013-01-08 08:24:00,
2013-01-08 03:29:00,35.8,29.3,30.36,NW,324,0.0,0.0,77,0.00,,,0.00,meteohub,2013-01-08 08:29:00,
2013-01-08 03:34:00,35.8,29.7,30.36,NW,324,0.0,0.0,78,0.00,,,0.00,meteohub,2013-01-08 08:34:00,
2013-01-08 03:39:00,36.3,29.8,30.36,NW,324,0.0,0.0,77,0.00,,,0.00,meteohub,2013-01-08 08:39:00,
2013-01-08 03:44:00,36.3,29.5,30.35,NW,325,0.0,1.0,76,0.00,,,0.00,meteohub,2013-01-08 08:44:00,
2013-01-08 03:49:00,36.1,29.7,30.35,NW,324,0.0,1.0,77,0.00,,,0.00,meteohub,2013-01-08 08:49:00,
2013-01-08 03:54:00,35.8,29.7,30.35,NW,324,0.0,1.0,78,0.00,,,0.00,meteohub,2013-01-08 08:54:00,
2013-01-08 03:59:00,35.2,29.3,30.35,NW,325,0.0,0.0,79,0.00,,,0.00,meteohub,2013-01-08 08:59:00,
2013-01-08 04:04:00,34.9,29.3,30.35,NW,324,0.0,0.0,80,0.00,,,0.00,meteohub,2013-01-08 09:04:00,
2013-01-08 04:09:00,34.9,29.7,30.35,NW,324,0.0,0.0,81,0.00,,,0.00,meteohub,2013-01-08 09:09:00,
2013-01-08 04:15:00,35.1,29.5,30.35,NW,323,0.0,1.0,80,0.00,,,0.00,meteohub,2013-01-08 09:15:00,
2013-01-08 04:20:00,35.2,29.7,30.35,NW,323,0.0,1.0,80,0.00,,,0.00,meteohub,2013-01-08 09:20:00,
2013-01-08 04:25:00,35.1,29.5,30.35,NW,323,0.0,1.0,80,0.00,,,0.00,meteohub,2013-01-08 09:25:00,
2013-01-08 04:30:00,35.2,29.7,30.35,NW,323,0.0,0.0,80,0.00,,,0.00,meteohub,2013-01-08 09:30:00,
2013-01-08 04:35:00,35.1,29.5,30.35,NW,323,0.0,0.0,80,0.00,,,0.00,meteohub,2013-01-08 09:35:00,
2013-01-08 04:40:00,34.5,29.3,30.35,NW,323,0.0,0.0,81,0.00,,,0.00,meteohub,2013-01-08 09:40:00,
2013-01-08 04:45:00,34.5,29.7,30.34,NW,323,0.0,0.0,82,0.00,,,0.00,meteohub,2013-01-08 09:45:00,
2013-01-08 04:50:00,34.5,29.3,30.35,NW,323,0.0,0.0,81,0.00,,,0.00,meteohub,2013-01-08 09:50:00,
2013-01-08 04:55:00,34.0,29.1,30.35,NW,323,0.0,0.0,82,0.00,,,0.00,meteohub,2013-01-08 09:55:00,
2013-01-08 05:00:00,34.2,29.5,30.35,NW,323,0.0,0.0,83,0.00,,,0.00,meteohub,2013-01-08 10:00:00,
2013-01-08 05:05:00,34.2,29.3,30.35,NW,323,0.0,0.0,82,0.00,,,0.00,meteohub,2013-01-08 10:05:00,
2013-01-08 05:10:00,34.2,29.5,30.35,NW,323,0.0,0.0,83,0.00,,,0.00,meteohub,2013-01-08 10:10:00,
2013-01-08 05:15:00,34.2,29.5,30.35,NW,323,0.0,1.0,83,0.00,,,0.00,meteohub,2013-01-08 10:15:00,
2013-01-08 05:20:00,34.2,29.5,30.35,NW,323,0.0,1.0,83,0.00,,,0.00,meteohub,2013-01-08 10:20:00,
2013-01-08 05:25:00,34.2,29.5,30.35,NW,323,0.0,1.0,83,0.00,,,0.00,meteohub,2013-01-08 10:25:00,
2013-01-08 05:30:00,34.3,29.7,30.36,NW,323,0.0,0.0,83,0.00,,,0.00,meteohub,2013-01-08 10:30:00,
2013-01-08 05:35:00,34.2,29.5,30.36,NW,323,0.0,0.0,83,0.00,,,0.00,meteohub,2013-01-08 10:35:00,
2013-01-08 05:40:00,34.0,29.3,30.36,NW,323,0.0,0.0,83,0.00,,,0.00,meteohub,2013-01-08 10:40:00,
2013-01-08 05:45:00,34.0,29.7,30.36,NW,323,0.0,0.0,84,0.00,,,0.00,meteohub,2013-01-08 10:45:00,
2013-01-08 05:50:00,34.2,29.5,30.36,NW,323,0.0,0.0,83,0.00,,,0.00,meteohub,2013-01-08 10:50:00,
2013-01-08 05:55:00,34.0,29.7,30.36,NW,323,0.0,0.0,84,0.00,,,0.00,meteohub,2013-01-08 10:55:00,
2013-01-08 06:00:00,34.2,29.8,30.36,NW,323,0.0,0.0,84,0.00,,,0.00,meteohub,2013-01-08 11:00:00,
2013-01-08 06:05:00,34.2,29.8,30.36,NW,323,0.0,0.0,84,0.00,,,0.00,meteohub,2013-01-08 11:05:00,
2013-01-08 06:10:00,34.2,29.5,30.36,NW,323,0.0,0.0,83,0.00,,,0.00,meteohub,2013-01-08 11:10:00,
2013-01-08 06:15:00,34.0,29.7,30.36,NW,323,0.0,0.0,84,0.00,,,0.00,meteohub,2013-01-08 11:15:00,
2013-01-08 06:20:00,33.8,29.8,30.36,NW,323,0.0,0.0,85,0.00,,,0.00,meteohub,2013-01-08 11:20:00,
2013-01-08 06:25:00,34.0,30.0,30.36,NW,323,0.0,0.0,85,0.00,,,0.00,meteohub,2013-01-08 11:25:00,
2013-01-08 06:30:00,34.2,30.2,30.37,NW,323,0.0,0.0,85,0.00,,,0.00,meteohub,2013-01-08 11:30:00,
2013-01-08 06:35:00,34.3,30.0,30.37,NW,323,0.0,0.0,84,0.00,,,0.00,meteohub,2013-01-08 11:35:00,
2013-01-08 06:40:00,34.2,29.8,30.37,NW,323,0.0,0.0,84,0.00,,,0.00,meteohub,2013-01-08 11:40:00,
2013-01-08 06:46:00,33.4,29.5,30.38,NW,323,0.0,0.0,85,0.00,,,0.00,meteohub,2013-01-08 11:46:00,
2013-01-08 06:51:00,33.3,29.5,30.38,NW,323,0.0,0.0,86,0.00,,,0.00,meteohub,2013-01-08 11:51:00,
2013-01-08 06:56:00,33.3,29.5,30.38,NW,323,0.0,0.0,86,0.00,,,0.00,meteohub,2013-01-08 11:56:00,
2013-01-08 07:01:00,33.6,29.8,30.38,NW,323,0.0,0.0,86,0.00,,,0.00,meteohub,2013-01-08 12:01:00,
2013-01-08 07:06:00,33.6,29.8,30.38,NW,323,0.0,0.0,86,0.00,,,0.00,meteohub,2013-01-08 12:06:00,
2013-01-08 07:11:00,33.6,29.8,30.38,NW,323,0.0,0.0,86,0.00,,,0.00,meteohub,2013-01-08 12:11:00,
2013-01-08 07:16:00,34.2,30.4,30.38,NW,323,0.0,0.0,86,0.00,,,0.00,meteohub,2013-01-08 12:16:00,
2013-01-08 07:21:00,34.7,30.4,30.37,NW,323,0.0,0.0,84,0.00,,,0.00,meteohub,2013-01-08 12:21:00,
2013-01-08 07:26:00,34.9,30.6,30.37,NW,323,0.0,0.0,84,0.00,,,0.00,meteohub,2013-01-08 12:26:00,
2013-01-08 07:31:00,35.2,30.6,30.38,NW,323,0.0,0.0,83,0.00,,,0.00,meteohub,2013-01-08 12:31:00,
2013-01-08 07:36:00,35.1,30.4,30.38,NW,323,0.0,0.0,83,0.00,,,0.00,meteohub,2013-01-08 12:36:00,
2013-01-08 07:41:00,34.7,30.7,30.37,NW,323,0.0,0.0,85,0.00,,,0.00,meteohub,2013-01-08 12:41:00,
2013-01-08 07:46:00,34.5,30.6,30.38,NW,323,0.0,0.0,85,0.00,,,0.00,meteohub,2013-01-08 12:46:00,
2013-01-08 07:51:00,34.5,30.6,30.38,NW,323,0.0,0.0,85,0.00,,,0.00,meteohub,2013-01-08 12:51:00,
2013-01-08 07:56:00,34.3,30.4,30.38,NW,323,0.0,0.0,85,0.00,,,0.00,meteohub,2013-01-08 12:56:00,
2013-01-08 08:01:00,34.0,30.2,30.39,NW,323,0.0,0.0,86,0.00,,,0.00,meteohub,2013-01-08 13:01:00,
2013-01-08 08:06:00,33.8,30.4,30.39,NW,323,0.0,0.0,87,0.00,,,0.00,meteohub,2013-01-08 13:06:00,
2013-01-08 08:11:00,34.0,30.6,30.40,NW,323,0.0,0.0,87,0.00,,,0.00,meteohub,2013-01-08 13:11:00,
2013-01-08 08:16:00,34.5,31.1,30.40,NW,323,0.0,0.0,87,0.00,,,0.00,meteohub,2013-01-08 13:16:00,
2013-01-08 08:21:00,35.2,31.5,30.40,NW,323,0.0,0.0,86,0.00,,,0.00,meteohub,2013-01-08 13:21:00,
2013-01-08 08:26:00,35.4,31.3,30.40,NW,323,0.0,0.0,85,0.00,,,0.00,meteohub,2013-01-08 13:26:00,
2013-01-08 08:31:00,36.0,31.6,30.40,NW,323,0.0,0.0,84,0.00,,,0.00,meteohub,2013-01-08 13:31:00,
2013-01-08 08:36:00,36.5,32.2,30.40,NW,323,0.0,0.0,84,0.00,,,0.00,meteohub,2013-01-08 13:36:00,
2013-01-08 08:41:00,36.9,33.4,30.40,NW,323,0.0,0.0,87,0.00,,,0.00,meteohub,2013-01-08 13:41:00,
2013-01-08 08:46:00,37.0,32.7,30.40,NW,323,0.0,0.0,84,0.00,,,0.00,meteohub,2013-01-08 13:46:00,
2013-01-08 08:51:00,37.4,33.3,30.41,NW,323,0.0,0.0,85,0.00,,,0.00,meteohub,2013-01-08 13:51:00,
2013-01-08 08:56:00,37.6,33.4,30.41,NW,323,0.0,0.0,85,0.00,,,0.00,meteohub,2013-01-08 13:56:00,
2013-01-08 09:01:00,37.8,33.6,30.41,NW,323,0.0,0.0,85,0.00,,,0.00,meteohub,2013-01-08 14:01:00,
2013-01-08 09:06:00,38.1,33.1,30.41,NW,323,0.0,0.0,82,0.00,,,0.00,meteohub,2013-01-08 14:06:00,
2013-01-08 09:11:00,38.5,34.3,30.42,NW,323,0.0,0.0,85,0.00,,,0.00,meteohub,2013-01-08 14:11:00,
2013-01-08 09:17:00,38.7,34.2,30.42,North,349,0.0,0.0,84,0.00,,,0.00,meteohub,2013-01-08 14:17:00,
2013-01-08 09:22:00,39.0,34.5,30.42,North,350,0.0,0.0,84,0.00,,,0.00,meteohub,2013-01-08 14:22:00,
2013-01-08 09:27:00,39.6,35.1,30.42,North,349,0.0,1.0,84,0.00,,,0.00,meteohub,2013-01-08 14:27:00,
2013-01-08 09:32:00,40.3,35.6,30.42,North,349,0.0,1.0,83,0.00,,,0.00,meteohub,2013-01-08 14:32:00,
2013-01-08 09:37:00,40.8,35.8,30.42,North,349,0.0,1.0,82,0.00,,,0.00,meteohub,2013-01-08 14:37:00,
2013-01-08 09:42:00,41.4,35.6,30.42,North,349,0.0,0.0,80,0.00,,,0.00,meteohub,2013-01-08 14:42:00,
2013-01-08 09:47:00,41.7,36.3,30.42,North,349,0.0,0.0,81,0.00,,,0.00,meteohub,2013-01-08 14:47:00,
2013-01-08 09:52:00,42.3,36.1,30.42,North,350,0.0,0.0,79,0.00,,,0.00,meteohub,2013-01-08 14:52:00,
2013-01-08 09:57:00,42.8,36.7,30.42,North,350,0.0,0.0,79,0.00,,,0.00,meteohub,2013-01-08 14:57:00,
2013-01-08 10:02:00,43.5,36.5,30.43,North,349,0.0,0.0,76,0.00,,,0.00,meteohub,2013-01-08 15:02:00,
2013-01-08 10:07:00,43.9,35.8,30.43,North,350,0.0,1.0,73,0.00,,,0.00,meteohub,2013-01-08 15:07:00,
2013-01-08 10:12:00,44.2,35.1,30.43,East,98,0.0,1.0,70,0.00,,,0.00,meteohub,2013-01-08 15:12:00,
2013-01-08 10:17:00,44.4,35.2,30.43,SSE,152,0.0,1.0,70,0.00,,,0.00,meteohub,2013-01-08 15:17:00,
2013-01-08 10:22:00,44.6,35.4,30.43,SW,221,0.0,1.0,70,0.00,,,0.00,meteohub,2013-01-08 15:22:00,
2013-01-08 10:27:00,44.8,34.9,30.43,SE,136,1.0,1.0,68,0.00,,,0.00,meteohub,2013-01-08 15:27:00,
2013-01-08 10:32:00,44.8,34.9,30.43,SSW,198,0.0,1.0,68,0.00,,,0.00,meteohub,2013-01-08 15:32:00,
2013-01-08 10:37:00,45.0,35.1,30.43,West,266,0.0,1.0,68,0.00,,,0.00,meteohub,2013-01-08 15:37:00,
2013-01-08 10:42:00,45.0,34.7,30.43,WNW,283,0.0,1.0,67,0.00,,,0.00,meteohub,2013-01-08 15:42:00,
2013-01-08 10:47:00,44.8,34.5,30.43,WNW,293,0.0,1.0,67,0.00,,,0.00,meteohub,2013-01-08 15:47:00,
2013-01-08 10:52:00,44.8,34.5,30.43,SSE,149,0.0,1.0,67,0.00,,,0.00,meteohub,2013-01-08 15:52:00,
2013-01-08 10:57:00,44.8,34.5,30.43,SE,136,1.0,1.0,67,0.00,,,0.00,meteohub,2013-01-08 15:57:00,
2013-01-08 11:02:00,45.0,35.1,30.43,SE,136,0.0,1.0,68,0.00,,,0.00,meteohub,2013-01-08 16:02:00,
2013-01-08 11:07:00,45.1,34.9,30.43,SE,136,0.0,1.0,67,0.00,,,0.00,meteohub,2013-01-08 16:07:00,
2013-01-08 11:12:00,45.1,34.5,30.42,SE,136,0.0,1.0,66,0.00,,,0.00,meteohub,2013-01-08 16:12:00,
2013-01-08 11:17:00,45.3,35.1,30.42,SSW,205,0.0,1.0,67,0.00,,,0.00,meteohub,2013-01-08 16:17:00,
2013-01-08 11:22:00,45.3,34.3,30.43,SE,142,0.0,1.0,65,0.00,,,0.00,meteohub,2013-01-08 16:22:00,
2013-01-08 11:27:00,45.5,34.3,30.42,SE,142,0.0,1.0,65,0.00,,,0.00,meteohub,2013-01-08 16:27:00,
2013-01-08 11:32:00,45.9,34.7,30.42,SE,142,1.0,1.0,65,0.00,,,0.00,meteohub,2013-01-08 16:32:00,
2013-01-08 11:37:00,46.2,35.1,30.42,South,176,0.0,2.0,65,0.00,,,0.00,meteohub,2013-01-08 16:37:00,
2013-01-08 11:42:00,46.0,34.5,30.42,SSW,200,1.0,2.0,64,0.00,,,0.00,meteohub,2013-01-08 16:42:00,
2013-01-08 11:48:00,46.6,35.1,30.42,East,84,1.0,2.0,64,0.00,,,0.00,meteohub,2013-01-08 16:48:00,
2013-01-08 11:53:00,46.8,34.5,30.41,SW,214,0.0,2.0,62,0.00,,,0.00,meteohub,2013-01-08 16:53:00,
2013-01-08 11:58:00,47.1,34.3,30.41,SSE,159,0.0,2.0,61,0.00,,,0.00,meteohub,2013-01-08 16:58:00,
2013-01-08 12:03:00,47.5,34.3,30.41,East,80,1.0,2.0,60,0.00,,,0.00,meteohub,2013-01-08 17:03:00,
2013-01-08 12:08:00,47.7,34.0,30.40,ESE,105,0.0,3.0,59,0.00,,,0.00,meteohub,2013-01-08 17:08:00,
2013-01-08 12:13:00,48.0,34.9,30.40,ESE,104,1.0,3.0,60,0.00,,,0.00,meteohub,2013-01-08 17:13:00,
2013-01-08 12:18:00,47.7,34.0,30.40,ESE,118,0.0,2.0,59,0.00,,,0.00,meteohub,2013-01-08 17:18:00,
2013-01-08 12:23:00,48.0,35.2,30.40,ESE,120,0.0,3.0,61,0.00,,,0.00,meteohub,2013-01-08 17:23:00,
2013-01-08 12:28:00,48.4,34.7,30.40,SE,134,1.0,3.0,59,0.00,,,0.00,meteohub,2013-01-08 17:28:00,
2013-01-08 12:33:00,48.0,34.9,30.39,SE,131,0.0,2.0,60,0.00,,,0.00,meteohub,2013-01-08 17:33:00,
2013-01-08 12:38:00,48.4,35.1,30.39,ESE,123,1.0,2.0,60,0.00,,,0.00,meteohub,2013-01-08 17:38:00,
2013-01-08 12:43:00,48.6,35.2,30.39,SE,132,0.0,2.0,60,0.00,,,0.00,meteohub,2013-01-08 17:43:00,
2013-01-08 12:48:00,48.6,34.9,30.38,SE,145,0.0,2.0,59,0.00,,,0.00,meteohub,2013-01-08 17:48:00,
2013-01-08 12:53:00,48.7,35.4,30.38,East,98,1.0,2.0,60,0.00,,,0.00,meteohub,2013-01-08 17:53:00,
2013-01-08 12:58:00,48.4,35.1,30.38,South,174,0.0,2.0,60,0.00,,,0.00,meteohub,2013-01-08 17:58:00,
2013-01-08 13:03:00,48.4,34.7,30.38,SSW,193,0.0,2.0,59,0.00,,,0.00,meteohub,2013-01-08 18:03:00,
2013-01-08 13:08:00,48.2,34.9,30.38,SSE,155,2.0,2.0,60,0.00,,,0.00,meteohub,2013-01-08 18:08:00,
2013-01-08 13:13:00,48.4,34.7,30.38,SE,141,1.0,2.0,59,0.00,,,0.00,meteohub,2013-01-08 18:13:00,
2013-01-08 13:18:00,48.4,34.7,30.38,WNW,293,0.0,2.0,59,0.00,,,0.00,meteohub,2013-01-08 18:18:00,
2013-01-08 13:23:00,48.4,35.1,30.37,West,281,0.0,2.0,60,0.00,,,0.00,meteohub,2013-01-08 18:23:00,
2013-01-08 13:28:00,48.6,34.9,30.37,East,89,0.0,2.0,59,0.00,,,0.00,meteohub,2013-01-08 18:28:00,
2013-01-08 13:33:00,48.9,34.9,30.37,SW,218,0.0,2.0,58,0.00,,,0.00,meteohub,2013-01-08 18:33:00,
2013-01-08 13:38:00,49.1,34.5,30.37,SW,232,0.0,1.0,57,0.00,,,0.00,meteohub,2013-01-08 18:38:00,
2013-01-08 13:43:00,49.3,34.7,30.37,WSW,242,0.0,2.0,57,0.00,,,0.00,meteohub,2013-01-08 18:43:00,
2013-01-08 13:48:00,49.5,34.9,30.36,South,186,0.0,2.0,57,0.00,,,0.00,meteohub,2013-01-08 18:48:00,
2013-01-08 13:53:00,49.8,34.7,30.36,West,260,1.0,2.0,56,0.00,,,0.00,meteohub,2013-01-08 18:53:00,
2013-01-08 13:58:00,49.8,34.3,30.36,SE,143,1.0,1.0,55,0.00,,,0.00,meteohub,2013-01-08 18:58:00,
2013-01-08 14:03:00,49.8,34.3,30.35,ESE,119,1.0,2.0,55,0.00,,,0.00,meteohub,2013-01-08 19:03:00,
2013-01-08 14:08:00,49.8,34.7,30.35,ESE,119,0.0,2.0,56,0.00,,,0.00,meteohub,2013-01-08 19:08:00,
2013-01-08 14:13:00,50.2,34.7,30.35,SE,139,0.0,2.0,55,0.00,,,0.00,meteohub,2013-01-08 19:13:00,
2013-01-08 14:18:00,50.4,34.9,30.35,WNW,284,2.0,2.0,55,0.00,,,0.00,meteohub,2013-01-08 19:18:00,
2013-01-08 14:23:00,50.2,35.1,30.35,WNW,283,0.0,3.0,56,0.00,,,0.00,meteohub,2013-01-08 19:23:00,
2013-01-08 14:28:00,50.2,35.1,30.35,SSE,150,0.0,3.0,56,0.00,,,0.00,meteohub,2013-01-08 19:28:00,
2013-01-08 14:33:00,50.2,35.1,30.35,West,273,0.0,2.0,56,0.00,,,0.00,meteohub,2013-01-08 19:33:00,
2013-01-08 14:38:00,50.4,35.2,30.35,SE,128,0.0,2.0,56,0.00,,,0.00,meteohub,2013-01-08 19:38:00,
2013-01-08 14:43:00,50.2,35.1,30.35,SE,140,0.0,1.0,56,0.00,,,0.00,meteohub,2013-01-08 19:43:00,
2013-01-08 14:48:00,50.2,35.6,30.35,WSW,256,0.0,1.0,57,0.00,,,0.00,meteohub,2013-01-08 19:48:00,
2013-01-08 14:53:00,50.0,35.4,30.35,WSW,255,0.0,2.0,57,0.00,,,0.00,meteohub,2013-01-08 19:53:00,
2013-01-08 14:58:00,50.0,35.4,30.35,SE,140,0.0,2.0,57,0.00,,,0.00,meteohub,2013-01-08 19:58:00,
2013-01-08 15:03:00,49.8,35.2,30.35,ESE,120,0.0,2.0,57,0.00,,,0.00,meteohub,2013-01-08 20:03:00,
2013-01-08 15:08:00,49.8,35.2,30.35,SE,127,0.0,2.0,57,0.00,,,0.00,meteohub,2013-01-08 20:08:00,
2013-01-08 15:13:00,49.8,35.6,30.35,SSE,149,1.0,1.0,58,0.00,,,0.00,meteohub,2013-01-08 20:13:00,
2013-01-08 15:18:00,50.2,35.6,30.35,SE,127,1.0,1.0,57,0.00,,,0.00,meteohub,2013-01-08 20:18:00,
2013-01-08 15:23:00,50.4,35.8,30.35,SSE,149,0.0,1.0,57,0.00,,,0.00,meteohub,2013-01-08 20:23:00,
2013-01-08 15:28:00,50.4,35.8,30.35,West,260,1.0,1.0,57,0.00,,,0.00,meteohub,2013-01-08 20:28:00,
2013-01-08 15:33:00,50.2,36.0,30.35,West,260,0.0,2.0,58,0.00,,,0.00,meteohub,2013-01-08 20:33:00,
2013-01-08 15:38:00,50.4,36.1,30.35,West,260,0.0,2.0,58,0.00,,,0.00,meteohub,2013-01-08 20:38:00,
2013-01-08 15:43:00,50.4,36.1,30.35,West,278,0.0,2.0,58,0.00,,,0.00,meteohub,2013-01-08 20:43:00,
2013-01-08 15:48:00,50.4,36.1,30.35,SSE,153,0.0,1.0,58,0.00,,,0.00,meteohub,2013-01-08 20:48:00,
2013-01-08 15:53:00,50.4,36.5,30.35,SSE,155,0.0,1.0,59,0.00,,,0.00,meteohub,2013-01-08 20:53:00,
2013-01-08 15:58:00,50.4,36.1,30.35,WSW,252,0.0,1.0,58,0.00,,,0.00,meteohub,2013-01-08 20:58:00,
2013-01-08 16:03:00,50.2,36.9,30.35,SSW,204,0.0,2.0,60,0.00,,,0.00,meteohub,2013-01-08 21:03:00,
2013-01-08 16:09:00,50.4,36.5,30.35,West,264,0.0,2.0,59,0.00,,,0.00,meteohub,2013-01-08 21:09:00,
2013-01-08 16:14:00,50.2,36.3,30.35,WSW,255,0.0,2.0,59,0.00,,,0.00,meteohub,2013-01-08 21:14:00,
2013-01-08 16:19:00,50.0,36.3,30.35,West,278,0.0,1.0,59,0.00,,,0.00,meteohub,2013-01-08 21:19:00,
2013-01-08 16:24:00,50.0,36.3,30.35,West,278,0.0,1.0,59,0.00,,,0.00,meteohub,2013-01-08 21:24:00,
2013-01-08 16:29:00,50.2,36.3,30.35,West,278,0.0,1.0,59,0.00,,,0.00,meteohub,2013-01-08 21:29:00,
2013-01-08 16:34:00,50.4,37.0,30.34,West,278,0.0,1.0,60,0.00,,,0.00,meteohub,2013-01-08 21:34:00,
2013-01-08 16:39:00,50.5,37.2,30.35,West,278,0.0,1.0,60,0.00,,,0.00,meteohub,2013-01-08 21:39:00,
2013-01-08 16:44:00,50.7,36.9,30.34,SE,132,0.0,1.0,59,0.00,,,0.00,meteohub,2013-01-08 21:44:00,
2013-01-08 16:49:00,50.7,36.9,30.34,ESE,121,1.0,1.0,59,0.00,,,0.00,meteohub,2013-01-08 21:49:00,
2013-01-08 16:54:00,50.5,36.7,30.34,ESE,121,1.0,1.0,59,0.00,,,0.00,meteohub,2013-01-08 21:54:00,
2013-01-08 16:59:00,50.5,37.2,30.34,ESE,121,0.0,2.0,60,0.00,,,0.00,meteohub,2013-01-08 21:59:00,
2013-01-08 17:04:00,50.5,37.2,30.35,ESE,121,0.0,2.0,60,0.00,,,0.00,meteohub,2013-01-08 22:04:00,
2013-01-08 17:09:00,50.2,36.9,30.34,ESE,121,0.0,1.0,60,0.00,,,0.00,meteohub,2013-01-08 22:09:00,
2013-01-08 17:14:00,50.2,36.9,30.35,ESE,121,0.0,1.0,60,0.00,,,0.00,meteohub,2013-01-08 22:14:00,
2013-01-08 17:19:00,49.8,36.5,30.34,ESE,113,0.0,1.0,60,0.00,,,0.00,meteohub,2013-01-08 22:19:00,
2013-01-08 17:24:00,49.5,36.5,30.34,ESE,113,0.0,1.0,61,0.00,,,0.00,meteohub,2013-01-08 22:24:00,
2013-01-08 17:29:00,49.1,36.7,30.34,ESE,113,0.0,1.0,62,0.00,,,0.00,meteohub,2013-01-08 22:29:00,
2013-01-08 17:34:00,48.7,36.7,30.34,ESE,113,0.0,1.0,63,0.00,,,0.00,meteohub,2013-01-08 22:34:00,
2013-01-08 17:39:00,48.2,36.1,30.35,ESE,113,0.0,1.0,63,0.00,,,0.00,meteohub,2013-01-08 22:39:00,
2013-01-08 17:44:00,47.8,36.3,30.35,ESE,113,0.0,1.0,64,0.00,,,0.00,meteohub,2013-01-08 22:44:00,
2013-01-08 17:49:00,47.3,36.1,30.36,ESE,113,0.0,1.0,65,0.00,,,0.00,meteohub,2013-01-08 22:49:00,
2013-01-08 17:54:00,47.1,36.3,30.36,ESE,113,0.0,0.0,66,0.00,,,0.00,meteohub,2013-01-08 22:54:00,
2013-01-08 17:59:00,46.9,36.1,30.35,ESE,113,0.0,0.0,66,0.00,,,0.00,meteohub,2013-01-08 22:59:00,
2013-01-08 18:04:00,47.1,36.3,30.35,ESE,113,0.0,0.0,66,0.00,,,0.00,meteohub,2013-01-08 23:04:00,
2013-01-08 18:09:00,47.1,36.3,30.35,ESE,113,0.0,1.0,66,0.00,,,0.00,meteohub,2013-01-08 23:09:00,
2013-01-08 18:14:00,47.1,36.3,30.35,ESE,113,0.0,1.0,66,0.00,,,0.00,meteohub,2013-01-08 23:14:00,
2013-01-08 18:19:00,47.1,36.7,30.35,ESE,113,0.0,1.0,67,0.00,,,0.00,meteohub,2013-01-08 23:19:00,
2013-01-08 18:24:00,47.5,36.7,30.35,ESE,113,0.0,1.0,66,0.00,,,0.00,meteohub,2013-01-08 23:24:00,
2013-01-08 18:29:00,47.7,36.9,30.35,ESE,113,0.0,0.0,66,0.00,,,0.00,meteohub,2013-01-08 23:29:00,
2013-01-08 18:34:00,47.7,37.2,30.35,ESE,113,0.0,1.0,67,0.00,,,0.00,meteohub,2013-01-08 23:34:00,
2013-01-08 18:39:00,47.5,36.7,30.35,North,356,0.0,1.0,66,0.00,,,0.00,meteohub,2013-01-08 23:39:00,
2013-01-08 18:44:00,47.1,36.3,30.35,North,356,0.0,2.0,66,0.00,,,0.00,meteohub,2013-01-08 23:44:00,
2013-01-08 18:49:00,46.8,36.3,30.35,North,356,0.0,2.0,67,0.00,,,0.00,meteohub,2013-01-08 23:49:00,
2013-01-08 18:54:00,46.6,36.1,30.34,North,356,0.0,2.0,67,0.00,,,0.00,meteohub,2013-01-08 23:54:00,
2013-01-08 18:59:00,46.2,36.3,30.35,North,356,0.0,0.0,68,0.00,,,0.00,meteohub,2013-01-08 23:59:00,
2013-01-08 19:05:00,45.9,36.0,30.35,North,356,0.0,0.0,68,0.00,,,0.00,meteohub,2013-01-09 00:05:00,
2013-01-08 19:10:00,45.5,36.0,30.36,North,356,0.0,0.0,69,0.00,,,0.00,meteohub,2013-01-09 00:10:00,
2013-01-08 19:15:00,45.1,36.0,30.37,North,357,0.0,0.0,70,0.00,,,0.00,meteohub,2013-01-09 00:15:00,
2013-01-08 19:20:00,45.0,36.1,30.37,North,356,0.0,0.0,71,0.00,,,0.00,meteohub,2013-01-09 00:20:00,
2013-01-08 19:25:00,45.0,36.1,30.37,North,356,0.0,0.0,71,0.00,,,0.00,meteohub,2013-01-09 00:25:00,
2013-01-08 19:30:00,45.1,36.3,30.37,North,356,0.0,0.0,71,0.00,,,0.00,meteohub,2013-01-09 00:30:00,
2013-01-08 19:35:00,45.5,36.7,30.37,North,357,0.0,0.0,71,0.00,,,0.00,meteohub,2013-01-09 00:35:00,
2013-01-08 19:40:00,45.7,36.5,30.37,North,356,0.0,0.0,70,0.00,,,0.00,meteohub,2013-01-09 00:40:00,
2013-01-08 19:45:00,46.0,36.9,30.37,North,356,0.0,0.0,70,0.00,,,0.00,meteohub,2013-01-09 00:45:00,
2013-01-08 19:50:00,46.2,37.4,30.37,North,356,1.0,1.0,71,0.00,,,0.00,meteohub,2013-01-09 00:50:00,
2013-01-08 19:55:00,46.0,36.9,30.38,North,357,0.0,1.0,70,0.00,,,0.00,meteohub,2013-01-09 00:55:00,
2013-01-08 20:00:00,46.0,36.9,30.38,North,356,0.0,1.0,70,0.00,,,0.00,meteohub,2013-01-09 01:00:00,
2013-01-08 20:05:00,46.2,37.0,30.38,North,357,0.0,1.0,70,0.00,,,0.00,meteohub,2013-01-09 01:05:00,
2013-01-08 20:10:00,46.2,36.7,30.38,North,356,0.0,0.0,69,0.00,,,0.00,meteohub,2013-01-09 01:10:00,
2013-01-08 20:15:00,46.4,36.9,30.37,North,356,0.0,1.0,69,0.00,,,0.00,meteohub,2013-01-09 01:15:00,
2013-01-08 20:20:00,46.2,36.7,30.37,North,356,0.0,1.0,69,0.00,,,0.00,meteohub,2013-01-09 01:20:00,
2013-01-08 20:25:00,46.0,36.9,30.37,North,356,0.0,1.0,70,0.00,,,0.00,meteohub,2013-01-09 01:25:00,
2013-01-08 20:30:00,45.7,37.6,30.37,North,356,0.0,0.0,73,0.00,,,0.00,meteohub,2013-01-09 01:30:00,
2013-01-08 20:35:00,45.1,37.0,30.37,North,357,0.0,0.0,73,0.00,,,0.00,meteohub,2013-01-09 01:35:00,
2013-01-08 20:40:00,45.0,37.2,30.37,North,356,0.0,0.0,74,0.00,,,0.00,meteohub,2013-01-09 01:40:00,
2013-01-08 20:45:00,44.8,37.4,30.38,North,357,0.0,0.0,75,0.00,,,0.00,meteohub,2013-01-09 01:45:00,
2013-01-08 20:50:00,44.6,37.6,30.38,North,356,0.0,0.0,76,0.00,,,0.00,meteohub,2013-01-09 01:50:00,
2013-01-08 20:55:00,44.6,37.6,30.37,North,356,0.0,0.0,76,0.00,,,0.00,meteohub,2013-01-09 01:55:00,
2013-01-08 21:00:00,44.6,37.6,30.37,North,356,0.0,0.0,76,0.00,,,0.00,meteohub,2013-01-09 02:00:00,
2013-01-08 21:05:00,44.8,37.4,30.36,North,357,0.0,0.0,75,0.00,,,0.00,meteohub,2013-01-09 02:05:00,
2013-01-08 21:10:00,45.0,37.9,30.36,North,356,0.0,1.0,76,0.00,,,0.00,meteohub,2013-01-09 02:10:00,
2013-01-08 21:15:00,45.1,38.3,30.38,North,357,0.0,1.0,77,0.00,,,0.00,meteohub,2013-01-09 02:15:00,
2013-01-08 21:20:00,45.1,37.9,30.38,North,357,0.0,1.0,76,0.00,,,0.00,meteohub,2013-01-09 02:20:00,
2013-01-08 21:25:00,45.1,38.3,30.38,North,356,0.0,0.0,77,0.00,,,0.00,meteohub,2013-01-09 02:25:00,
2013-01-08 21:30:00,45.1,37.9,30.38,North,356,0.0,0.0,76,0.00,,,0.00,meteohub,2013-01-09 02:30:00,
2013-01-08 21:35:00,45.5,38.3,30.37,North,356,0.0,1.0,76,0.00,,,0.00,meteohub,2013-01-09 02:35:00,
2013-01-08 21:40:00,45.7,38.5,30.38,North,357,0.0,1.0,76,0.00,,,0.00,meteohub,2013-01-09 02:40:00,
2013-01-08 21:45:00,45.9,38.3,30.38,North,357,0.0,1.0,75,0.00,,,0.00,meteohub,2013-01-09 02:45:00,
2013-01-08 21:50:00,45.9,38.3,30.39,North,357,0.0,0.0,75,0.00,,,0.00,meteohub,2013-01-09 02:50:00,
2013-01-08 21:55:00,45.9,38.7,30.39,North,356,0.0,1.0,76,0.00,,,0.00,meteohub,2013-01-09 02:55:00,
2013-01-08 22:00:00,46.0,38.3,30.39,North,357,0.0,1.0,74,0.00,,,0.00,meteohub,2013-01-09 03:00:00,
2013-01-08 22:05:00,46.0,38.8,30.39,North,356,0.0,0.0,76,0.00,,,0.00,meteohub,2013-01-09 03:05:00,
2013-01-08 22:11:00,46.0,38.5,30.39,North,356,0.0,1.0,75,0.00,,,0.00,meteohub,2013-01-09 03:11:00,
2013-01-08 22:15:00,46.0,38.5,30.38,North,356,0.0,1.0,75,0.00,,,0.00,meteohub,2013-01-09 03:15:00,
2013-01-08 22:21:00,46.0,38.5,30.38,North,356,0.0,0.0,75,0.00,,,0.00,meteohub,2013-01-09 03:21:00,
2013-01-08 22:26:00,46.2,38.7,30.38,North,356,0.0,0.0,75,0.00,,,0.00,meteohub,2013-01-09 03:26:00,
2013-01-08 22:31:00,46.4,38.8,30.38,North,356,0.0,0.0,75,0.00,,,0.00,meteohub,2013-01-09 03:31:00,
2013-01-08 22:36:00,46.4,39.2,30.38,North,356,0.0,0.0,76,0.00,,,0.00,meteohub,2013-01-09 03:36:00,
2013-01-08 22:41:00,46.4,38.8,30.38,North,356,0.0,0.0,75,0.00,,,0.00,meteohub,2013-01-09 03:41:00,
2013-01-08 22:46:00,46.6,39.0,30.39,North,356,0.0,0.0,75,0.00,,,0.00,meteohub,2013-01-09 03:46:00,
2013-01-08 22:51:00,46.6,39.4,30.39,North,356,0.0,0.0,76,0.00,,,0.00,meteohub,2013-01-09 03:51:00,
2013-01-08 22:56:00,46.8,39.6,30.39,North,356,0.0,0.0,76,0.00,,,0.00,meteohub,2013-01-09 03:56:00,
2013-01-08 23:01:00,46.8,39.6,30.39,North,356,0.0,0.0,76,0.00,,,0.00,meteohub,2013-01-09 04:01:00,
2013-01-08 23:06:00,46.9,39.7,30.39,North,356,0.0,0.0,76,0.00,,,0.00,meteohub,2013-01-09 04:06:00,
2013-01-08 23:11:00,46.9,39.7,30.39,North,357,0.0,0.0,76,0.00,,,0.00,meteohub,2013-01-09 04:11:00,
2013-01-08 23:16:00,47.1,39.9,30.39,North,356,0.0,0.0,76,0.00,,,0.00,meteohub,2013-01-09 04:16:00,
2013-01-08 23:21:00,47.1,40.3,30.38,North,356,0.0,0.0,77,0.00,,,0.00,meteohub,2013-01-09 04:21:00,
2013-01-08 23:26:00,46.9,39.7,30.39,North,356,0.0,0.0,76,0.00,,,0.00,meteohub,2013-01-09 04:26:00,
2013-01-08 23:31:00,47.1,39.9,30.38,North,357,0.0,0.0,76,0.00,,,0.00,meteohub,2013-01-09 04:31:00,
2013-01-08 23:36:00,47.1,39.9,30.38,North,356,0.0,0.0,76,0.00,,,0.00,meteohub,2013-01-09 04:36:00,
2013-01-08 23:41:00,47.1,39.9,30.38,North,356,0.0,0.0,76,0.00,,,0.00,meteohub,2013-01-09 04:41:00,
2013-01-08 23:46:00,47.1,40.3,30.38,North,356,0.0,0.0,77,0.00,,,0.00,meteohub,2013-01-09 04:46:00,
2013-01-08 23:51:00,47.1,40.3,30.38,North,357,0.0,0.0,77,0.00,,,0.00,meteohub,2013-01-09 04:51:00,
2013-01-08 23:56:00,47.1,39.9,30.38,North,355,0.0,0.0,76,0.00,,,0.00,meteohub,2013-01-09 04:56:00,